| time (UTC) | temp C | wind direction | speed KPH | gust KPH | rain 1hr cm | rain 24hr cm | rain mn cm | humidity % | barometer mb |
| 20260506233003 | 17 | 93 | 0.0 | 1.6 | 0.00 | 0.00 | 0.00 | 48 | 1024.1 |
| 20260506232703 | 17 | 0 | 0.0 | 0.0 | 0.00 | 0.00 | 0.00 | 48 | 1024.2 |
| 20260506232617 | 17 | 0 | 0.0 | 0.0 | 0.00 | 0.00 | 0.00 | 49 | 1024.2 |
| 20260506232103 | 17 | 93 | 0.0 | 1.6 | 0.00 | 0.00 | 0.00 | 48 | 1024.4 |
| 20260506231803 | 17 | 93 | 0.0 | 1.6 | 0.00 | 0.00 | 0.00 | 48 | 1024.4 |
| 20260506231503 | 17 | 93 | 0.0 | 1.6 | 0.00 | 0.00 | 0.00 | 48 | 1024.4 |
| 20260506231203 | 17 | 93 | 0.0 | 1.6 | 0.00 | 0.00 | 0.00 | 48 | 1024.3 |
| 20260506231118 | 17 | 93 | 0.0 | 1.6 | 0.00 | 0.00 | 0.00 | 48 | 1024.3 |
| 20260506230603 | 17 | 93 | 0.0 | 1.6 | 0.00 | 0.00 | 0.00 | 48 | 1024.3 |
| 20260506230303 | 17 | 93 | 0.0 | 1.6 | 0.00 | 0.00 | 0.00 | 48 | 1024.2 |
| 20260506230003 | 18 | 100 | 0.0 | 1.6 | 0.00 | 0.00 | 0.00 | 48 | 1024.3 |
| 20260506225703 | 18 | 102 | 1.6 | 1.6 | 0.00 | 0.00 | 0.00 | 48 | 1024.3 |
| 20260506225403 | 18 | 103 | 1.6 | 3.2 | 0.00 | 0.00 | 0.00 | 48 | 1024.2 |
| 20260506225317 | 18 | 103 | 1.6 | 3.2 | 0.00 | 0.00 | 0.00 | 48 | 1024.3 |
| 20260506224803 | 18 | 101 | 1.6 | 3.2 | 0.00 | 0.00 | 0.00 | 48 | 1024.7 |
| 20260506224503 | 18 | 100 | 1.6 | 3.2 | 0.00 | 0.00 | 0.00 | 48 | 1024.2 |
| 20260506224203 | 18 | 104 | 1.6 | 3.2 | 0.00 | 0.00 | 0.00 | 48 | 1024.4 |
| 20260506223903 | 17 | 248 | 0.0 | 1.6 | 0.00 | 0.00 | 0.00 | 49 | 1024.4 |
| 20260506223603 | 17 | 0 | 0.0 | 0.0 | 0.00 | 0.00 | 0.00 | 48 | 1024.3 |
| 20260506223517 | 17 | 0 | 0.0 | 0.0 | 0.00 | 0.00 | 0.00 | 48 | 1024.3 |
| 20260506223003 | 18 | 248 | 0.0 | 1.6 | 0.00 | 0.00 | 0.00 | 47 | 1024.5 |
| 20260506222703 | 18 | 247 | 0.0 | 1.6 | 0.00 | 0.00 | 0.00 | 46 | 1024.3 |
| 20260506222403 | 18 | 244 | 0.0 | 1.6 | 0.00 | 0.00 | 0.00 | 46 | 1024.4 |
| 20260506222103 | 18 | 241 | 0.0 | 1.6 | 0.00 | 0.00 | 0.00 | 47 | 1024.3 |
| 20260506221803 | 18 | 237 | 0.0 | 1.6 | 0.00 | 0.00 | 0.00 | 46 | 1024.4 |
| 20260506221504 | 18 | 231 | 0.0 | 1.6 | 0.00 | 0.00 | 0.00 | 47 | 1024.7 |
| 20260506221203 | 18 | 223 | 0.0 | 1.6 | 0.00 | 0.00 | 0.00 | 47 | 1024.7 |
| 20260506221118 | 18 | 223 | 0.0 | 1.6 | 0.00 | 0.00 | 0.00 | 47 | 1024.6 |
| 20260506220603 | 18 | 222 | 0.0 | 1.6 | 0.00 | 0.00 | 0.00 | 47 | 1024.6 |
| 20260506220303 | 18 | 222 | 0.0 | 1.6 | 0.00 | 0.00 | 0.00 | 47 | 1024.6 |
| 20260506220003 | 18 | 222 | 0.0 | 1.6 | 0.00 | 0.00 | 0.00 | 47 | 1024.5 |
| 20260506215703 | 18 | 221 | 0.0 | 1.6 | 0.00 | 0.00 | 0.00 | 48 | 1024.7 |
| 20260506215403 | 18 | 0 | 0.0 | 0.0 | 0.00 | 0.00 | 0.00 | 49 | 1024.5 |
| 20260506215103 | 18 | 0 | 0.0 | 0.0 | 0.00 | 0.00 | 0.00 | 49 | 1024.6 |
| 20260506214803 | 18 | 0 | 0.0 | 0.0 | 0.00 | 0.00 | 0.00 | 48 | 1024.7 |
| 20260506214718 | 18 | 0 | 0.0 | 0.0 | 0.00 | 0.00 | 0.00 | 48 | 1024.7 |
| 20260506214203 | 18 | 0 | 0.0 | 0.0 | 0.00 | 0.00 | 0.00 | 48 | 1024.8 |
| 20260506213903 | 18 | 0 | 0.0 | 0.0 | 0.00 | 0.00 | 0.00 | 47 | 1024.4 |
| 20260506213817 | 18 | 0 | 0.0 | 0.0 | 0.00 | 0.00 | 0.00 | 47 | 1024.4 |
| 20260506213303 | 18 | 0 | 0.0 | 0.0 | 0.00 | 0.00 | 0.00 | 47 | 1024.6 |
| 20260506213003 | 18 | 0 | 0.0 | 0.0 | 0.00 | 0.00 | 0.00 | 47 | 1024.7 |
| 20260506212703 | 19 | 221 | 0.0 | 1.6 | 0.00 | 0.00 | 0.00 | 46 | 1024.6 |
| 20260506212403 | 19 | 221 | 0.0 | 1.6 | 0.00 | 0.00 | 0.00 | 46 | 1024.8 |
| 20260506212318 | 19 | 221 | 0.0 | 1.6 | 0.00 | 0.00 | 0.00 | 46 | 1024.8 |
| 20260506212018 | 19 | 221 | 0.0 | 1.6 | 0.00 | 0.00 | 0.00 | 45 | 1024.8 |
| 20260506211503 | 18 | 0 | 0.0 | 0.0 | 0.00 | 0.00 | 0.00 | 46 | 1024.7 |
| 20260506211203 | 18 | 0 | 0.0 | 0.0 | 0.00 | 0.00 | 0.00 | 46 | 1024.7 |
| 20260506210903 | 19 | 0 | 0.0 | 0.0 | 0.00 | 0.00 | 0.00 | 45 | 1024.9 |
| 20260506210603 | 19 | 221 | 0.0 | 1.6 | 0.00 | 0.00 | 0.00 | 45 | 1024.7 |
| 20260506210303 | 19 | 221 | 0.0 | 1.6 | 0.00 | 0.00 | 0.00 | 45 | 1024.8 |
| 20260506210014 | 19 | 221 | 0.0 | 1.6 | 0.00 | 0.00 | 0.00 | 45 | 1024.8 |
| 20260506205703 | 19 | 221 | 0.0 | 1.6 | 0.00 | 0.00 | 0.00 | 44 | 1025.0 |
| 20260506205403 | 19 | 220 | 0.0 | 1.6 | 0.00 | 0.00 | 0.00 | 45 | 1024.8 |
| 20260506205103 | 19 | 230 | 0.0 | 3.2 | 0.00 | 0.00 | 0.00 | 44 | 1024.9 |
| 20260506204803 | 19 | 230 | 0.0 | 3.2 | 0.00 | 0.00 | 0.00 | 44 | 1024.9 |
| 20260506204503 | 19 | 241 | 0.0 | 3.2 | 0.00 | 0.00 | 0.00 | 44 | 1024.7 |
| 20260506204203 | 19 | 296 | 0.0 | 3.2 | 0.00 | 0.00 | 0.00 | 45 | 1024.8 |
| 20260506203903 | 19 | 301 | 0.0 | 3.2 | 0.00 | 0.00 | 0.00 | 45 | 1025.1 |
| 20260506203817 | 19 | 301 | 0.0 | 3.2 | 0.00 | 0.00 | 0.00 | 45 | 1025.0 |
| 20260506203304 | 19 | 292 | 0.0 | 1.6 | 0.00 | 0.00 | 0.00 | 45 | 1024.8 |
| 20260506203003 | 19 | 277 | 0.0 | 1.6 | 0.00 | 0.00 | 0.00 | 44 | 1025.1 |
| 20260506202704 | 19 | 277 | 0.0 | 1.6 | 0.00 | 0.00 | 0.00 | 44 | 1025.1 |
| 20260506202403 | 19 | 274 | 0.0 | 1.6 | 0.00 | 0.00 | 0.00 | 44 | 1025.2 |
| 20260506202103 | 19 | 237 | 0.0 | 1.6 | 0.00 | 0.00 | 0.00 | 44 | 1024.9 |
| 20260506201803 | 19 | 0 | 0.0 | 0.0 | 0.00 | 0.00 | 0.00 | 44 | 1025.1 |
| 20260506201503 | 19 | 236 | 0.0 | 1.6 | 0.00 | 0.00 | 0.00 | 43 | 1024.9 |
| 20260506201203 | 19 | 239 | 0.0 | 1.6 | 0.00 | 0.00 | 0.00 | 43 | 1024.7 |
| 20260506200903 | 20 | 241 | 1.6 | 3.2 | 0.00 | 0.00 | 0.00 | 43 | 1024.8 |
| 20260506200603 | 20 | 244 | 1.6 | 3.2 | 0.00 | 0.00 | 0.00 | 42 | 1025.0 |
| 20260506200518 | 20 | 244 | 1.6 | 3.2 | 0.00 | 0.00 | 0.00 | 42 | 1025.0 |
| 20260506200003 | 20 | 248 | 0.0 | 3.2 | 0.00 | 0.00 | 0.00 | 41 | 1024.7 |
| 20260506195703 | 20 | 303 | 0.0 | 3.2 | 0.00 | 0.00 | 0.00 | 40 | 1024.8 |
| 20260506195403 | 20 | 287 | 1.6 | 3.2 | 0.00 | 0.00 | 0.00 | 39 | 1024.7 |
| 20260506195103 | 20 | 274 | 1.6 | 3.2 | 0.00 | 0.00 | 0.00 | 39 | 1024.7 |
| 20260506194803 | 20 | 255 | 1.6 | 3.2 | 0.00 | 0.00 | 0.00 | 38 | 1024.8 |
| 20260506194717 | 20 | 248 | 1.6 | 3.2 | 0.00 | 0.00 | 0.00 | 38 | 1024.7 |
| 20260506194203 | 20 | 231 | 0.0 | 3.2 | 0.00 | 0.00 | 0.00 | 38 | 1024.4 |
| 20260506193903 | 20 | 226 | 0.0 | 1.6 | 0.00 | 0.00 | 0.00 | 38 | 1024.7 |
| 20260506193603 | 20 | 225 | 0.0 | 1.6 | 0.00 | 0.00 | 0.00 | 37 | 1024.7 |
| 20260506193518 | 20 | 225 | 0.0 | 1.6 | 0.00 | 0.00 | 0.00 | 37 | 1024.7 |
| 20260506193003 | 20 | 227 | 0.0 | 1.6 | 0.00 | 0.00 | 0.00 | 37 | 1024.6 |
| 20260506192703 | 20 | 228 | 0.0 | 1.6 | 0.00 | 0.00 | 0.00 | 37 | 1024.5 |
| 20260506192618 | 20 | 228 | 0.0 | 1.6 | 0.00 | 0.00 | 0.00 | 37 | 1024.5 |
| 20260506192103 | 20 | 236 | 0.0 | 3.2 | 0.00 | 0.00 | 0.00 | 37 | 1024.4 |
| 20260506191803 | 20 | 252 | 0.0 | 3.2 | 0.00 | 0.00 | 0.00 | 37 | 1024.0 |
| 20260506191717 | 20 | 255 | 0.0 | 3.2 | 0.00 | 0.00 | 0.00 | 38 | 1024.4 |
| 20260506191203 | 20 | 293 | 0.0 | 1.6 | 0.00 | 0.00 | 0.00 | 37 | 1024.3 |
| 20260506190903 | 20 | 303 | 0.0 | 1.6 | 0.00 | 0.00 | 0.00 | 37 | 1024.2 |
| 20260506190604 | 20 | 309 | 0.0 | 1.6 | 0.00 | 0.00 | 0.00 | 37 | 1024.3 |
| 20260506190306 | 20 | 312 | 0.0 | 1.6 | 0.00 | 0.00 | 0.00 | 37 | 1024.1 |
| 20260506190004 | 20 | 312 | 0.0 | 1.6 | 0.00 | 0.00 | 0.00 | 37 | 1024.0 |
| 20260506185703 | 20 | 312 | 0.0 | 1.6 | 0.00 | 0.00 | 0.00 | 38 | 1024.0 |
| 20260506185403 | 20 | 313 | 0.0 | 1.6 | 0.00 | 0.00 | 0.00 | 37 | 1024.1 |
| 20260506185103 | 20 | 314 | 0.0 | 1.6 | 0.00 | 0.00 | 0.00 | 37 | 1023.9 |
| 20260506184803 | 20 | 315 | 0.0 | 1.6 | 0.00 | 0.00 | 0.00 | 37 | 1024.1 |
| 20260506184503 | 20 | 316 | 0.0 | 1.6 | 0.00 | 0.00 | 0.00 | 37 | 1024.0 |
| 20260506184203 | 21 | 316 | 0.0 | 1.6 | 0.00 | 0.00 | 0.00 | 37 | 1023.9 |
| 20260506183903 | 21 | 316 | 0.0 | 1.6 | 0.00 | 0.00 | 0.00 | 37 | 1023.9 |
| 20260506183604 | 21 | 316 | 0.0 | 3.2 | 0.00 | 0.00 | 0.00 | 37 | 1023.9 |
| 20260506183518 | 21 | 317 | 0.0 | 3.2 | 0.00 | 0.00 | 0.00 | 37 | 1023.9 |
| 20260506183218 | 21 | 317 | 0.0 | 3.2 | 0.00 | 0.00 | 0.00 | 37 | 1023.9 |
| 20260506182703 | 21 | 315 | 0.0 | 3.2 | 0.00 | 0.00 | 0.00 | 38 | 1023.8 |
| 20260506182403 | 21 | 316 | 0.0 | 3.2 | 0.00 | 0.00 | 0.00 | 38 | 1023.9 |
| 20260506182103 | 21 | 311 | 1.6 | 3.2 | 0.00 | 0.00 | 0.00 | 37 | 1023.7 |
| 20260506181803 | 21 | 301 | 0.0 | 3.2 | 0.00 | 0.00 | 0.00 | 37 | 1023.7 |
| 20260506181719 | 21 | 299 | 0.0 | 3.2 | 0.00 | 0.00 | 0.00 | 37 | 1023.5 |
| 20260506181203 | 21 | 252 | 0.0 | 4.8 | 0.00 | 0.00 | 0.00 | 37 | 1023.7 |
| 20260506180903 | 21 | 246 | 1.6 | 4.8 | 0.00 | 0.00 | 0.00 | 37 | 1023.7 |
| 20260506180603 | 21 | 247 | 1.6 | 4.8 | 0.00 | 0.00 | 0.00 | 36 | 1023.7 |
| 20260506180303 | 21 | 249 | 1.6 | 4.8 | 0.00 | 0.00 | 0.00 | 36 | 1023.4 |
| 20260506180004 | 21 | 256 | 0.0 | 1.6 | 0.00 | 0.00 | 0.00 | 37 | 1023.7 |
| 20260506175703 | 21 | 284 | 1.6 | 4.8 | 0.00 | 0.00 | 0.00 | 37 | 1023.5 |
| 20260506175403 | 21 | 276 | 1.6 | 4.8 | 0.00 | 0.00 | 0.00 | 37 | 1023.5 |
| 20260506175103 | 21 | 275 | 1.6 | 4.8 | 0.00 | 0.00 | 0.00 | 37 | 1023.7 |
| 20260506175019 | 21 | 276 | 1.6 | 4.8 | 0.00 | 0.00 | 0.00 | 37 | 1023.5 |
| 20260506174503 | 21 | 236 | 0.0 | 1.6 | 0.00 | 0.00 | 0.00 | 37 | 1023.3 |
| 20260506174418 | 21 | 237 | 1.6 | 3.2 | 0.00 | 0.00 | 0.00 | 37 | 1023.3 |
| 20260506173903 | 21 | 238 | 1.6 | 4.8 | 0.00 | 0.00 | 0.00 | 37 | 1023.5 |
| 20260506173603 | 21 | 237 | 1.6 | 6.4 | 0.00 | 0.00 | 0.00 | 37 | 1023.2 |
| 20260506173517 | 21 | 237 | 1.6 | 6.4 | 0.00 | 0.00 | 0.00 | 37 | 1023.1 |
| 20260506173217 | 21 | 231 | 1.6 | 6.4 | 0.00 | 0.00 | 0.00 | 37 | 1023.3 |
| 20260506172917 | 21 | 232 | 1.6 | 6.4 | 0.00 | 0.00 | 0.00 | 37 | 1023.2 |
| 20260506172403 | 21 | 234 | 1.6 | 6.4 | 0.00 | 0.00 | 0.00 | 37 | 1023.2 |
| 20260506172103 | 21 | 238 | 1.6 | 9.7 | 0.00 | 0.00 | 0.00 | 37 | 1023.5 |
| 20260506171803 | 21 | 239 | 1.6 | 9.7 | 0.00 | 0.00 | 0.00 | 37 | 1023.3 |
| 20260506171718 | 21 | 240 | 3.2 | 9.7 | 0.00 | 0.00 | 0.00 | 37 | 1023.3 |
| 20260506171203 | 21 | 240 | 3.2 | 6.4 | 0.00 | 0.00 | 0.00 | 37 | 1023.3 |
| 20260506170903 | 21 | 239 | 3.2 | 6.4 | 0.00 | 0.00 | 0.00 | 37 | 1023.1 |
| 20260506170603 | 21 | 239 | 3.2 | 6.4 | 0.00 | 0.00 | 0.00 | 37 | 1023.1 |
| 20260506170303 | 22 | 238 | 3.2 | 9.7 | 0.00 | 0.00 | 0.00 | 37 | 1023.2 |
| 20260506170003 | 22 | 239 | 3.2 | 9.7 | 0.00 | 0.00 | 0.00 | 37 | 1023.3 |
| 20260506165703 | 22 | 237 | 3.2 | 9.7 | 0.00 | 0.00 | 0.00 | 36 | 1023.2 |
| 20260506165617 | 22 | 236 | 3.2 | 9.7 | 0.00 | 0.00 | 0.00 | 36 | 1023.3 |
| 20260506165103 | 22 | 237 | 3.2 | 6.4 | 0.00 | 0.00 | 0.00 | 36 | 1023.3 |
| 20260506164804 | 22 | 242 | 4.8 | 9.7 | 0.00 | 0.00 | 0.00 | 36 | 1023.1 |
| 20260506164503 | 22 | 240 | 4.8 | 9.7 | 0.00 | 0.00 | 0.00 | 36 | 1023.4 |
| 20260506164203 | 22 | 240 | 4.8 | 12.9 | 0.00 | 0.00 | 0.00 | 35 | 1023.0 |
| 20260506164118 | 22 | 239 | 4.8 | 12.9 | 0.00 | 0.00 | 0.00 | 35 | 1023.1 |
| 20260506163603 | 22 | 239 | 4.8 | 12.9 | 0.00 | 0.00 | 0.00 | 35 | 1023.1 |
| 20260506163517 | 22 | 239 | 4.8 | 12.9 | 0.00 | 0.00 | 0.00 | 35 | 1023.1 |
| 20260506163217 | 22 | 242 | 4.8 | 12.9 | 0.00 | 0.00 | 0.00 | 35 | 1023.1 |
| 20260506162703 | 22 | 243 | 4.8 | 12.9 | 0.00 | 0.00 | 0.00 | 35 | 1023.4 |
| 20260506162403 | 22 | 240 | 4.8 | 12.9 | 0.00 | 0.00 | 0.00 | 34 | 1023.1 |
| 20260506162104 | 22 | 242 | 3.2 | 9.7 | 0.00 | 0.00 | 0.00 | 34 | 1023.2 |
| 20260506162018 | 22 | 243 | 3.2 | 9.7 | 0.00 | 0.00 | 0.00 | 34 | 1023.2 |
| 20260506161718 | 22 | 243 | 4.8 | 9.7 | 0.00 | 0.00 | 0.00 | 33 | 1023.2 |
| 20260506161203 | 22 | 244 | 4.8 | 11.3 | 0.00 | 0.00 | 0.00 | 33 | 1023.0 |
| 20260506160903 | 23 | 246 | 4.8 | 11.3 | 0.00 | 0.00 | 0.00 | 33 | 1023.2 |
| 20260506160603 | 23 | 241 | 4.8 | 12.9 | 0.00 | 0.00 | 0.00 | 32 | 1023.3 |
| 20260506160517 | 23 | 240 | 4.8 | 12.9 | 0.00 | 0.00 | 0.00 | 32 | 1023.1 |
| 20260506160003 | 23 | 239 | 8.0 | 12.9 | 0.00 | 0.00 | 0.00 | 32 | 1023.0 |
| 20260506155703 | 22 | 235 | 8.0 | 12.9 | 0.00 | 0.00 | 0.00 | 32 | 1023.4 |
| 20260506155403 | 22 | 235 | 8.0 | 12.9 | 0.00 | 0.00 | 0.00 | 31 | 1023.1 |
| 20260506155318 | 22 | 232 | 8.0 | 12.9 | 0.00 | 0.00 | 0.00 | 31 | 1023.1 |
| 20260506155018 | 22 | 235 | 8.0 | 12.9 | 0.00 | 0.00 | 0.00 | 31 | 1023.2 |
| 20260506154503 | 22 | 237 | 8.0 | 17.7 | 0.00 | 0.00 | 0.00 | 31 | 1023.0 |
| 20260506154417 | 22 | 238 | 8.0 | 17.7 | 0.00 | 0.00 | 0.00 | 31 | 1023.0 |
| 20260506153903 | 23 | 241 | 9.7 | 17.7 | 0.00 | 0.00 | 0.00 | 30 | 1023.3 |
| 20260506153603 | 23 | 240 | 8.0 | 16.1 | 0.00 | 0.00 | 0.00 | 30 | 1023.0 |
| 20260506153303 | 23 | 240 | 9.7 | 16.1 | 0.00 | 0.00 | 0.00 | 30 | 1023.1 |
| 20260506153003 | 23 | 241 | 9.7 | 17.7 | 0.00 | 0.00 | 0.00 | 30 | 1023.3 |
| 20260506152703 | 23 | 239 | 9.7 | 17.7 | 0.00 | 0.00 | 0.00 | 30 | 1023.4 |
| 20260506152618 | 22 | 239 | 8.0 | 17.7 | 0.00 | 0.00 | 0.00 | 30 | 1023.4 |
| 20260506152103 | 23 | 232 | 9.7 | 17.7 | 0.00 | 0.00 | 0.00 | 30 | 1023.5 |
| 20260506151803 | 22 | 236 | 9.7 | 17.7 | 0.00 | 0.00 | 0.00 | 30 | 1023.4 |
| 20260506151503 | 23 | 239 | 9.7 | 17.7 | 0.00 | 0.00 | 0.00 | 31 | 1023.3 |
| 20260506151203 | 23 | 240 | 8.0 | 17.7 | 0.00 | 0.00 | 0.00 | 31 | 1023.3 |
| 20260506150903 | 23 | 233 | 9.7 | 17.7 | 0.00 | 0.00 | 0.00 | 31 | 1023.4 |
| 20260506150817 | 23 | 234 | 9.7 | 17.7 | 0.00 | 0.00 | 0.00 | 31 | 1023.4 |
| 20260506150305 | 22 | 234 | 11.3 | 24.1 | 0.00 | 0.00 | 0.00 | 31 | 1023.4 |
| 20260506150216 | 22 | 235 | 11.3 | 24.1 | 0.00 | 0.00 | 0.00 | 31 | 1023.5 |
| 20260506145918 | 23 | 240 | 11.3 | 24.1 | 0.00 | 0.00 | 0.00 | 31 | 1023.5 |
| 20260506145403 | 22 | 240 | 11.3 | 22.5 | 0.00 | 0.00 | 0.00 | 32 | 1023.7 |
| 20260506145103 | 23 | 236 | 9.7 | 22.5 | 0.00 | 0.00 | 0.00 | 32 | 1023.5 |
| 20260506145017 | 23 | 236 | 9.7 | 22.5 | 0.00 | 0.00 | 0.00 | 32 | 1023.5 |
| 20260506144503 | 23 | 236 | 6.4 | 22.5 | 0.00 | 0.00 | 0.00 | 31 | 1023.4 |
| 20260506144203 | 23 | 232 | 6.4 | 12.9 | 0.00 | 0.00 | 0.00 | 32 | 1023.5 |
| 20260506143903 | 23 | 235 | 6.4 | 17.7 | 0.00 | 0.00 | 0.00 | 32 | 1023.3 |
| 20260506143604 | 22 | 236 | 8.0 | 17.7 | 0.00 | 0.00 | 0.00 | 32 | 1023.7 |
| 20260506143303 | 23 | 235 | 8.0 | 17.7 | 0.00 | 0.00 | 0.00 | 33 | 1023.5 |
| 20260506143003 | 23 | 230 | 8.0 | 16.1 | 0.00 | 0.00 | 0.00 | 33 | 1023.4 |
| 20260506142703 | 23 | 231 | 8.0 | 16.1 | 0.00 | 0.00 | 0.00 | 34 | 1023.4 |
| 20260506142618 | 23 | 231 | 8.0 | 16.1 | 0.00 | 0.00 | 0.00 | 34 | 1023.4 |
| 20260506142103 | 22 | 238 | 9.7 | 16.1 | 0.00 | 0.00 | 0.00 | 34 | 1023.4 |
| 20260506141803 | 22 | 241 | 9.7 | 14.5 | 0.00 | 0.00 | 0.00 | 35 | 1023.7 |
| 20260506141503 | 22 | 241 | 9.7 | 17.7 | 0.00 | 0.00 | 0.00 | 35 | 1023.4 |
| 20260506141203 | 22 | 243 | 9.7 | 17.7 | 0.00 | 0.00 | 0.00 | 35 | 1023.4 |
| 20260506140903 | 22 | 237 | 9.7 | 17.7 | 0.00 | 0.00 | 0.00 | 36 | 1023.5 |
| 20260506140603 | 22 | 242 | 9.7 | 17.7 | 0.00 | 0.00 | 0.00 | 35 | 1023.4 |
| 20260506140303 | 22 | 232 | 9.7 | 20.9 | 0.00 | 0.00 | 0.00 | 36 | 1023.7 |
| 20260506140003 | 22 | 231 | 9.7 | 20.9 | 0.00 | 0.00 | 0.00 | 36 | 1023.7 |
| 20260506135703 | 22 | 232 | 9.7 | 20.9 | 0.00 | 0.00 | 0.00 | 37 | 1023.7 |
| 20260506135403 | 22 | 236 | 9.7 | 16.1 | 0.00 | 0.00 | 0.00 | 37 | 1023.7 |
| 20260506135103 | 22 | 239 | 9.7 | 17.7 | 0.00 | 0.00 | 0.00 | 38 | 1023.7 |
| 20260506134803 | 22 | 242 | 9.7 | 22.5 | 0.00 | 0.00 | 0.00 | 39 | 1023.5 |
| 20260506134717 | 22 | 243 | 9.7 | 22.5 | 0.00 | 0.00 | 0.00 | 39 | 1023.7 |
| 20260506134203 | 22 | 240 | 9.7 | 22.5 | 0.00 | 0.00 | 0.00 | 39 | 1023.7 |
| 20260506133903 | 22 | 238 | 9.7 | 17.7 | 0.00 | 0.00 | 0.00 | 40 | 1023.7 |
| 20260506133603 | 22 | 236 | 8.0 | 17.7 | 0.00 | 0.00 | 0.00 | 40 | 1023.7 |
| 20260506133303 | 22 | 229 | 8.0 | 17.7 | 0.00 | 0.00 | 0.00 | 39 | 1023.7 |
| 20260506133218 | 22 | 228 | 8.0 | 17.7 | 0.00 | 0.00 | 0.00 | 40 | 1023.8 |
| 20260506132703 | 22 | 222 | 8.0 | 17.7 | 0.00 | 0.00 | 0.00 | 41 | 1023.7 |
| 20260506132403 | 22 | 221 | 8.0 | 17.7 | 0.00 | 0.00 | 0.00 | 39 | 1024.0 |
| 20260506132103 | 23 | 225 | 8.0 | 17.7 | 0.00 | 0.00 | 0.00 | 39 | 1023.7 |
| 20260506131803 | 22 | 225 | 8.0 | 17.7 | 0.00 | 0.00 | 0.00 | 40 | 1023.4 |
| 20260506131504 | 22 | 232 | 9.7 | 17.7 | 0.00 | 0.00 | 0.00 | 40 | 1023.5 |
| 20260506131203 | 23 | 233 | 9.7 | 17.7 | 0.00 | 0.00 | 0.00 | 40 | 1023.5 |
| 20260506131116 | 23 | 234 | 9.7 | 17.7 | 0.00 | 0.00 | 0.00 | 39 | 1023.7 |
| 20260506130603 | 22 | 235 | 9.7 | 16.1 | 0.00 | 0.00 | 0.00 | 40 | 1023.5 |
| 20260506130303 | 22 | 233 | 9.7 | 17.7 | 0.00 | 0.00 | 0.00 | 40 | 1023.7 |
| 20260506130003 | 23 | 231 | 9.7 | 17.7 | 0.00 | 0.00 | 0.00 | 38 | 1023.7 |
| 20260506125703 | 23 | 223 | 9.7 | 17.7 | 0.00 | 0.00 | 0.00 | 38 | 1023.5 |
| 20260506125403 | 23 | 222 | 9.7 | 20.9 | 0.00 | 0.00 | 0.00 | 36 | 1023.8 |
| 20260506125103 | 23 | 224 | 9.7 | 20.9 | 0.00 | 0.00 | 0.00 | 35 | 1023.8 |
| 20260506124803 | 23 | 236 | 11.3 | 20.9 | 0.00 | 0.00 | 0.00 | 35 | 1023.8 |
| 20260506124503 | 23 | 237 | 11.3 | 20.9 | 0.00 | 0.00 | 0.00 | 34 | 1023.8 |
| 20260506124416 | 23 | 235 | 11.3 | 20.9 | 0.00 | 0.00 | 0.00 | 34 | 1023.8 |
| 20260506123903 | 22 | 235 | 12.9 | 24.1 | 0.00 | 0.00 | 0.00 | 35 | 1023.9 |
| 20260506123603 | 22 | 233 | 12.9 | 24.1 | 0.00 | 0.00 | 0.00 | 35 | 1024.0 |
| 20260506123303 | 22 | 229 | 11.3 | 24.1 | 0.00 | 0.00 | 0.00 | 36 | 1023.8 |
| 20260506123003 | 23 | 228 | 11.3 | 22.5 | 0.00 | 0.00 | 0.00 | 37 | 1023.9 |
| 20260506122703 | 23 | 229 | 9.7 | 20.9 | 0.00 | 0.00 | 0.00 | 36 | 1024.0 |
| 20260506122403 | 23 | 226 | 11.3 | 20.9 | 0.00 | 0.00 | 0.00 | 37 | 1023.9 |
| 20260506122103 | 23 | 224 | 9.7 | 20.9 | 0.00 | 0.00 | 0.00 | 38 | 1023.8 |
| 20260506121803 | 23 | 214 | 8.0 | 17.7 | 0.00 | 0.00 | 0.00 | 37 | 1023.9 |
| 20260506121503 | 23 | 224 | 8.0 | 22.5 | 0.00 | 0.00 | 0.00 | 37 | 1023.9 |
| 20260506121203 | 23 | 225 | 8.0 | 22.5 | 0.00 | 0.00 | 0.00 | 37 | 1023.8 |
| 20260506120903 | 22 | 230 | 9.7 | 22.5 | 0.00 | 0.00 | 0.00 | 37 | 1023.8 |
| 20260506120603 | 22 | 233 | 11.3 | 22.5 | 0.00 | 0.00 | 0.00 | 38 | 1023.7 |
| 20260506120303 | 22 | 235 | 11.3 | 22.5 | 0.00 | 0.00 | 0.00 | 39 | 1024.1 |
| 20260506120004 | 22 | 233 | 11.3 | 22.5 | 0.00 | 0.00 | 0.00 | 39 | 1024.1 |
| 20260506115703 | 22 | 227 | 11.3 | 22.5 | 0.00 | 0.00 | 0.00 | 39 | 1024.1 |
| 20260506115403 | 23 | 222 | 9.7 | 22.5 | 0.00 | 0.00 | 0.00 | 38 | 1023.8 |
| 20260506115103 | 22 | 222 | 9.7 | 20.9 | 0.00 | 0.00 | 0.00 | 39 | 1023.8 |
| 20260506114803 | 23 | 221 | 9.7 | 20.9 | 0.00 | 0.00 | 0.00 | 39 | 1023.8 |
| 20260506114718 | 23 | 219 | 9.7 | 20.9 | 0.00 | 0.00 | 0.00 | 40 | 1023.8 |
| 20260506114204 | 23 | 221 | 9.7 | 20.9 | 0.00 | 0.00 | 0.00 | 40 | 1024.2 |
| 20260506113903 | 22 | 222 | 9.7 | 20.9 | 0.00 | 0.00 | 0.00 | 42 | 1024.0 |
| 20260506113603 | 22 | 227 | 11.3 | 20.9 | 0.00 | 0.00 | 0.00 | 43 | 1024.0 |
| 20260506113303 | 22 | 227 | 11.3 | 22.5 | 0.00 | 0.00 | 0.00 | 42 | 1024.2 |
| 20260506113003 | 22 | 228 | 11.3 | 22.5 | 0.00 | 0.00 | 0.00 | 44 | 1024.2 |
| 20260506112917 | 22 | 225 | 11.3 | 22.5 | 0.00 | 0.00 | 0.00 | 44 | 1024.0 |
| 20260506112403 | 23 | 215 | 9.7 | 22.5 | 0.00 | 0.00 | 0.00 | 43 | 1024.0 |
| 20260506112316 | 23 | 215 | 9.7 | 20.9 | 0.00 | 0.00 | 0.00 | 43 | 1024.1 |
| 20260506111803 | 23 | 219 | 9.7 | 20.9 | 0.00 | 0.00 | 0.00 | 42 | 1024.0 |
| 20260506111503 | 23 | 222 | 9.7 | 20.9 | 0.00 | 0.00 | 0.00 | 41 | 1024.0 |
| 20260506111203 | 23 | 212 | 9.7 | 20.9 | 0.00 | 0.00 | 0.00 | 41 | 1024.1 |
| 20260506110903 | 23 | 213 | 8.0 | 16.1 | 0.00 | 0.00 | 0.00 | 39 | 1024.2 |
| 20260506110603 | 23 | 207 | 8.0 | 17.7 | 0.00 | 0.00 | 0.00 | 39 | 1024.0 |
| 20260506110303 | 23 | 209 | 9.7 | 22.5 | 0.00 | 0.00 | 0.00 | 37 | 1024.0 |
| 20260506110003 | 23 | 214 | 9.7 | 22.5 | 0.00 | 0.00 | 0.00 | 36 | 1024.0 |
| 20260506105703 | 23 | 217 | 9.7 | 22.5 | 0.00 | 0.00 | 0.00 | 35 | 1024.1 |
| 20260506105403 | 24 | 224 | 9.7 | 22.5 | 0.00 | 0.00 | 0.00 | 34 | 1024.0 |
| 20260506105103 | 24 | 220 | 8.0 | 17.7 | 0.00 | 0.00 | 0.00 | 32 | 1024.2 |
| 20260506104803 | 23 | 226 | 8.0 | 22.5 | 0.00 | 0.00 | 0.00 | 32 | 1024.0 |
| 20260506104718 | 23 | 227 | 9.7 | 22.5 | 0.00 | 0.00 | 0.00 | 33 | 1023.8 |
| 20260506104203 | 23 | 225 | 9.7 | 22.5 | 0.00 | 0.00 | 0.00 | 34 | 1023.9 |
| 20260506103903 | 24 | 228 | 8.0 | 22.5 | 0.00 | 0.00 | 0.00 | 34 | 1024.2 |
| 20260506103603 | 24 | 224 | 8.0 | 16.1 | 0.00 | 0.00 | 0.00 | 33 | 1024.0 |
| 20260506103517 | 24 | 223 | 6.4 | 16.1 | 0.00 | 0.00 | 0.00 | 33 | 1024.0 |
| 20260506103003 | 23 | 226 | 8.0 | 16.1 | 0.00 | 0.00 | 0.00 | 33 | 1024.1 |
| 20260506102703 | 23 | 225 | 8.0 | 16.1 | 0.00 | 0.00 | 0.00 | 33 | 1024.1 |
| 20260506102403 | 23 | 224 | 8.0 | 16.1 | 0.00 | 0.00 | 0.00 | 33 | 1024.1 |
| 20260506102318 | 23 | 222 | 8.0 | 16.1 | 0.00 | 0.00 | 0.00 | 33 | 1024.1 |
| 20260506102018 | 23 | 216 | 8.0 | 12.9 | 0.00 | 0.00 | 0.00 | 32 | 1024.1 |
| 20260506101503 | 24 | 215 | 6.4 | 12.9 | 0.00 | 0.00 | 0.00 | 32 | 1024.3 |
| 20260506101203 | 24 | 217 | 6.4 | 14.5 | 0.00 | 0.00 | 0.00 | 33 | 1023.9 |
| 20260506100903 | 23 | 222 | 8.0 | 14.5 | 0.00 | 0.00 | 0.00 | 33 | 1023.9 |
| 20260506100603 | 23 | 220 | 8.0 | 14.5 | 0.00 | 0.00 | 0.00 | 33 | 1024.2 |
| 20260506100303 | 23 | 222 | 8.0 | 14.5 | 0.00 | 0.00 | 0.00 | 33 | 1024.0 |
| 20260506100003 | 23 | 227 | 8.0 | 12.9 | 0.00 | 0.00 | 0.00 | 33 | 1024.1 |
| 20260506095703 | 23 | 219 | 6.4 | 12.9 | 0.00 | 0.00 | 0.00 | 34 | 1024.1 |
| 20260506095403 | 23 | 214 | 6.4 | 12.9 | 0.00 | 0.00 | 0.00 | 34 | 1024.0 |
| 20260506095103 | 23 | 193 | 6.4 | 16.1 | 0.00 | 0.00 | 0.00 | 36 | 1024.0 |
| 20260506094803 | 23 | 202 | 6.4 | 16.1 | 0.00 | 0.00 | 0.00 | 36 | 1024.3 |
| 20260506094503 | 23 | 200 | 6.4 | 16.1 | 0.00 | 0.00 | 0.00 | 37 | 1024.3 |
| 20260506094203 | 23 | 218 | 4.8 | 11.3 | 0.00 | 0.00 | 0.00 | 37 | 1024.4 |
| 20260506093903 | 23 | 220 | 6.4 | 14.5 | 0.00 | 0.00 | 0.00 | 37 | 1024.3 |
| 20260506093603 | 23 | 220 | 4.8 | 14.5 | 0.00 | 0.00 | 0.00 | 38 | 1024.2 |
| 20260506093519 | 23 | 217 | 6.4 | 14.5 | 0.00 | 0.00 | 0.00 | 38 | 1024.2 |
| 20260506093003 | 23 | 208 | 6.4 | 14.5 | 0.00 | 0.00 | 0.00 | 37 | 1024.3 |
| 20260506092703 | 23 | 207 | 6.4 | 14.5 | 0.00 | 0.00 | 0.00 | 38 | 1023.9 |
| 20260506092618 | 23 | 209 | 6.4 | 14.5 | 0.00 | 0.00 | 0.00 | 38 | 1023.9 |
| 20260506092103 | 23 | 225 | 6.4 | 14.5 | 0.00 | 0.00 | 0.00 | 38 | 1024.4 |
| 20260506091803 | 23 | 222 | 6.4 | 12.9 | 0.00 | 0.00 | 0.00 | 38 | 1024.2 |
| 20260506091503 | 23 | 226 | 4.8 | 11.3 | 0.00 | 0.00 | 0.00 | 37 | 1024.4 |
| 20260506091203 | 23 | 211 | 4.8 | 12.9 | 0.00 | 0.00 | 0.00 | 38 | 1024.2 |
| 20260506090903 | 23 | 212 | 4.8 | 12.9 | 0.00 | 0.00 | 0.00 | 38 | 1024.4 |
| 20260506090603 | 23 | 199 | 4.8 | 12.9 | 0.00 | 0.00 | 0.00 | 38 | 1024.0 |
| 20260506090303 | 23 | 215 | 6.4 | 16.1 | 0.00 | 0.00 | 0.00 | 38 | 1024.4 |
| 20260506090003 | 23 | 214 | 6.4 | 16.1 | 0.00 | 0.00 | 0.00 | 38 | 1024.2 |
| 20260506085703 | 23 | 220 | 6.4 | 16.1 | 0.00 | 0.00 | 0.00 | 38 | 1024.3 |
| 20260506085403 | 23 | 213 | 6.4 | 12.9 | 0.00 | 0.00 | 0.00 | 38 | 1024.3 |
| 20260506085317 | 23 | 215 | 4.8 | 12.9 | 0.00 | 0.00 | 0.00 | 38 | 1024.1 |
| 20260506084803 | 23 | 214 | 4.8 | 12.9 | 0.00 | 0.00 | 0.00 | 38 | 1024.1 |
| 20260506084503 | 23 | 189 | 4.8 | 12.9 | 0.00 | 0.00 | 0.00 | 37 | 1024.3 |
| 20260506084417 | 23 | 188 | 4.8 | 12.9 | 0.00 | 0.00 | 0.00 | 37 | 1024.2 |
| 20260506084117 | 23 | 179 | 4.8 | 12.9 | 0.00 | 0.00 | 0.00 | 37 | 1023.9 |
| 20260506083603 | 23 | 198 | 6.4 | 12.9 | 0.00 | 0.00 | 0.00 | 37 | 1024.2 |
| 20260506083303 | 23 | 196 | 4.8 | 11.3 | 0.00 | 0.00 | 0.00 | 36 | 1024.2 |
| 20260506083003 | 23 | 193 | 4.8 | 14.5 | 0.00 | 0.00 | 0.00 | 35 | 1024.1 |
| 20260506082703 | 23 | 187 | 4.8 | 14.5 | 0.00 | 0.00 | 0.00 | 33 | 1023.9 |
| 20260506082403 | 23 | 187 | 4.8 | 14.5 | 0.00 | 0.00 | 0.00 | 33 | 1024.2 |
| 20260506082103 | 23 | 198 | 4.8 | 9.7 | 0.00 | 0.00 | 0.00 | 33 | 1024.2 |
| 20260506081803 | 23 | 215 | 4.8 | 9.7 | 0.00 | 0.00 | 0.00 | 33 | 1024.4 |
| 20260506081503 | 23 | 224 | 4.8 | 9.7 | 0.00 | 0.00 | 0.00 | 33 | 1024.3 |
| 20260506081203 | 23 | 230 | 4.8 | 9.7 | 0.00 | 0.00 | 0.00 | 34 | 1023.9 |
| 20260506080903 | 22 | 232 | 4.8 | 9.7 | 0.00 | 0.00 | 0.00 | 34 | 1024.2 |
| 20260506080603 | 23 | 232 | 4.8 | 12.9 | 0.00 | 0.00 | 0.00 | 34 | 1024.1 |
| 20260506080303 | 22 | 222 | 4.8 | 12.9 | 0.00 | 0.00 | 0.00 | 33 | 1024.0 |
| 20260506080218 | 22 | 219 | 4.8 | 12.9 | 0.00 | 0.00 | 0.00 | 34 | 1024.3 |
| 20260506073303 | 22 | 229 | 3.2 | 6.4 | 0.00 | 0.00 | 0.00 | 35 | 1024.0 |
| 20260506073003 | 23 | 229 | 3.2 | 6.4 | 0.00 | 0.00 | 0.00 | 34 | 1023.9 |
| 20260506072703 | 22 | 205 | 1.6 | 6.4 | 0.00 | 0.00 | 0.00 | 35 | 1024.0 |
| 20260506072403 | 22 | 210 | 3.2 | 6.4 | 0.00 | 0.00 | 0.00 | 35 | 1023.9 |
| 20260506072103 | 22 | 198 | 1.6 | 6.4 | 0.00 | 0.00 | 0.00 | 34 | 1023.8 |
| 20260506071803 | 21 | 214 | 3.2 | 9.7 | 0.00 | 0.00 | 0.00 | 36 | 1023.5 |
| 20260506071503 | 21 | 228 | 4.8 | 9.7 | 0.00 | 0.00 | 0.00 | 36 | 1023.8 |
| 20260506071416 | 21 | 231 | 4.8 | 11.3 | 0.00 | 0.00 | 0.00 | 36 | 1023.8 |
| 20260506070903 | 21 | 234 | 4.8 | 11.3 | 0.00 | 0.00 | 0.00 | 36 | 1024.0 |
| 20260506070818 | 22 | 234 | 4.8 | 11.3 | 0.00 | 0.00 | 0.00 | 36 | 1024.0 |
| 20260506070303 | 22 | 226 | 1.6 | 6.4 | 0.00 | 0.00 | 0.00 | 34 | 1023.8 |
| 20260506062403 | 21 | 10 | 1.6 | 3.2 | 0.00 | 0.00 | 0.00 | 39 | 1023.8 |
| 20260506062103 | 21 | 31 | 1.6 | 3.2 | 0.00 | 0.00 | 0.00 | 39 | 1023.8 |
| 20260506062016 | 21 | 46 | 1.6 | 3.2 | 0.00 | 0.00 | 0.00 | 38 | 1023.7 |
| 20260506061503 | 21 | 54 | 0.0 | 1.6 | 0.00 | 0.00 | 0.00 | 39 | 1023.9 |
| 20260506061203 | 20 | 54 | 0.0 | 1.6 | 0.00 | 0.00 | 0.00 | 40 | 1023.9 |
| 20260506060903 | 20 | 54 | 0.0 | 1.6 | 0.00 | 0.00 | 0.00 | 41 | 1024.1 |
| 20260506060603 | 20 | 54 | 0.0 | 1.6 | 0.00 | 0.00 | 0.00 | 43 | 1024.0 |
| 20260506060304 | 19 | 53 | 1.6 | 3.2 | 0.00 | 0.00 | 0.00 | 44 | 1023.7 |
| 20260506051203 | 18 | 31 | 1.6 | 3.2 | 0.00 | 0.00 | 0.00 | 49 | 1023.7 |
| 20260506050903 | 18 | 26 | 0.0 | 3.2 | 0.00 | 0.00 | 0.00 | 49 | 1023.5 |
| 20260506050603 | 17 | 34 | 1.6 | 4.8 | 0.00 | 0.00 | 0.00 | 50 | 1023.8 |
| 20260506050303 | 17 | 41 | 1.6 | 4.8 | 0.00 | 0.00 | 0.00 | 51 | 1023.7 |
| 20260506050217 | 17 | 42 | 1.6 | 4.8 | 0.00 | 0.00 | 0.00 | 52 | 1023.7 |
| 20260506044803 | 16 | 52 | 3.2 | 6.4 | 0.00 | 0.00 | 0.00 | 55 | 1023.4 |
| 20260506044503 | 16 | 57 | 3.2 | 6.4 | 0.00 | 0.00 | 0.00 | 56 | 1023.3 |
| 20260506044203 | 16 | 64 | 4.8 | 9.7 | 0.00 | 0.00 | 0.00 | 56 | 1023.5 |
| 20260506043903 | 16 | 71 | 4.8 | 9.7 | 0.00 | 0.00 | 0.00 | 56 | 1023.7 |
| 20260506043603 | 16 | 67 | 4.8 | 9.7 | 0.00 | 0.00 | 0.00 | 56 | 1023.4 |
| 20260506043303 | 16 | 66 | 4.8 | 9.7 | 0.00 | 0.00 | 0.00 | 56 | 1023.4 |
| 20260506043003 | 16 | 67 | 4.8 | 9.7 | 0.00 | 0.00 | 0.00 | 56 | 1023.3 |
| 20260506042703 | 16 | 75 | 3.2 | 9.7 | 0.00 | 0.00 | 0.00 | 56 | 1023.3 |
| 20260506042403 | 16 | 95 | 1.6 | 4.8 | 0.00 | 0.00 | 0.00 | 56 | 1023.3 |
| 20260506042103 | 16 | 99 | 1.6 | 3.2 | 0.00 | 0.00 | 0.00 | 57 | 1023.3 |
| 20260506042018 | 16 | 100 | 1.6 | 3.2 | 0.00 | 0.00 | 0.00 | 57 | 1023.3 |
| 20260506041503 | 15 | 101 | 1.6 | 3.2 | 0.00 | 0.00 | 0.00 | 57 | 1023.5 |
| 20260506041203 | 15 | 104 | 1.6 | 3.2 | 0.00 | 0.00 | 0.00 | 58 | 1023.2 |
| 20260506040904 | 15 | 108 | 1.6 | 3.2 | 0.00 | 0.00 | 0.00 | 59 | 1023.4 |
| 20260506040603 | 15 | 110 | 1.6 | 3.2 | 0.00 | 0.00 | 0.00 | 60 | 1023.4 |
| 20260506040303 | 15 | 111 | 1.6 | 3.2 | 0.00 | 0.00 | 0.00 | 61 | 1023.2 |
| 20260506040003 | 15 | 106 | 1.6 | 3.2 | 0.00 | 0.00 | 0.00 | 61 | 1023.2 |
| 20260506035703 | 15 | 96 | 1.6 | 3.2 | 0.00 | 0.00 | 0.00 | 60 | 1023.1 |
| 20260506035403 | 15 | 92 | 1.6 | 3.2 | 0.00 | 0.00 | 0.00 | 60 | 1023.3 |
| 20260506035104 | 15 | 96 | 3.2 | 3.2 | 0.00 | 0.00 | 0.00 | 60 | 1023.1 |
| 20260506034803 | 15 | 101 | 1.6 | 3.2 | 0.00 | 0.00 | 0.00 | 60 | 1022.9 |
| 20260506034504 | 15 | 103 | 1.6 | 3.2 | 0.00 | 0.00 | 0.00 | 60 | 1023.0 |
| 20260506034417 | 15 | 101 | 1.6 | 3.2 | 0.00 | 0.00 | 0.00 | 60 | 1023.1 |
| 20260506034117 | 15 | 93 | 1.6 | 3.2 | 0.00 | 0.00 | 0.00 | 60 | 1023.0 |
| 20260506033603 | 15 | 53 | 1.6 | 4.8 | 0.00 | 0.00 | 0.00 | 60 | 1023.0 |
| 20260506033303 | 15 | 50 | 1.6 | 4.8 | 0.00 | 0.00 | 0.00 | 60 | 1022.9 |
| 20260506033003 | 15 | 49 | 3.2 | 4.8 | 0.00 | 0.00 | 0.00 | 59 | 1023.1 |
| 20260506032703 | 15 | 52 | 3.2 | 4.8 | 0.00 | 0.00 | 0.00 | 59 | 1022.9 |
| 20260506032403 | 15 | 62 | 3.2 | 4.8 | 0.00 | 0.00 | 0.00 | 59 | 1023.0 |
| 20260506032103 | 15 | 73 | 3.2 | 4.8 | 0.00 | 0.00 | 0.00 | 59 | 1022.8 |
| 20260506032017 | 15 | 77 | 3.2 | 4.8 | 0.00 | 0.00 | 0.00 | 59 | 1022.8 |
| 20260506031503 | 15 | 66 | 1.6 | 3.2 | 0.00 | 0.00 | 0.00 | 59 | 1022.8 |
| 20260506031203 | 15 | 41 | 1.6 | 3.2 | 0.00 | 0.00 | 0.00 | 59 | 1022.9 |
| 20260506031117 | 15 | 34 | 1.6 | 3.2 | 0.00 | 0.00 | 0.00 | 59 | 1022.9 |
| 20260506030603 | 15 | 19 | 1.6 | 4.8 | 0.00 | 0.00 | 0.00 | 60 | 1022.7 |
| 20260506030518 | 15 | 19 | 1.6 | 4.8 | 0.00 | 0.00 | 0.00 | 60 | 1022.7 |
| 20260506030003 | 15 | 57 | 1.6 | 3.2 | 0.00 | 0.00 | 0.00 | 59 | 1022.8 |
| 20260506025703 | 15 | 68 | 0.0 | 3.2 | 0.00 | 0.00 | 0.00 | 59 | 1022.9 |
| 20260506025618 | 15 | 68 | 0.0 | 3.2 | 0.00 | 0.00 | 0.00 | 59 | 1022.9 |
| 20260506025103 | 15 | 68 | 0.0 | 1.6 | 0.00 | 0.00 | 0.00 | 59 | 1022.8 |
| 20260506024804 | 15 | 68 | 0.0 | 1.6 | 0.00 | 0.00 | 0.00 | 59 | 1022.7 |
| 20260506024717 | 15 | 68 | 0.0 | 3.2 | 0.00 | 0.00 | 0.00 | 59 | 1022.8 |
| 20260506024416 | 15 | 65 | 1.6 | 3.2 | 0.00 | 0.00 | 0.00 | 59 | 1022.9 |
| 20260506023903 | 15 | 58 | 1.6 | 4.8 | 0.00 | 0.00 | 0.00 | 59 | 1022.7 |
| 20260506023818 | 15 | 58 | 1.6 | 4.8 | 0.00 | 0.00 | 0.00 | 59 | 1022.7 |
| 20260506023518 | 15 | 56 | 1.6 | 4.8 | 0.00 | 0.00 | 0.00 | 59 | 1022.9 |
| 20260506023003 | 15 | 67 | 1.6 | 3.2 | 0.00 | 0.00 | 0.00 | 59 | 1023.0 |
| 20260506022703 | 15 | 69 | 1.6 | 3.2 | 0.00 | 0.00 | 0.00 | 59 | 1023.0 |
| 20260506022617 | 15 | 69 | 1.6 | 3.2 | 0.00 | 0.00 | 0.00 | 59 | 1022.8 |
| 20260506022317 | 15 | 71 | 1.6 | 4.8 | 0.00 | 0.00 | 0.00 | 59 | 1023.1 |
| 20260506021804 | 15 | 73 | 1.6 | 4.8 | 0.00 | 0.00 | 0.00 | 59 | 1023.0 |
| 20260506021503 | 15 | 73 | 3.2 | 4.8 | 0.00 | 0.00 | 0.00 | 59 | 1022.8 |
| 20260506021203 | 15 | 72 | 1.6 | 3.2 | 0.00 | 0.00 | 0.00 | 59 | 1022.9 |
| 20260506020903 | 15 | 68 | 1.6 | 3.2 | 0.00 | 0.00 | 0.00 | 59 | 1022.8 |
| 20260506020604 | 15 | 63 | 1.6 | 4.8 | 0.00 | 0.00 | 0.00 | 58 | 1023.0 |
| 20260506020304 | 15 | 63 | 1.6 | 4.8 | 0.00 | 0.00 | 0.00 | 59 | 1023.1 |
| 20260506020217 | 15 | 62 | 1.6 | 4.8 | 0.00 | 0.00 | 0.00 | 59 | 1023.1 |
| 20260506015703 | 15 | 56 | 1.6 | 3.2 | 0.00 | 0.00 | 0.00 | 59 | 1022.8 |
| 20260506015403 | 15 | 55 | 1.6 | 3.2 | 0.00 | 0.00 | 0.00 | 59 | 1023.1 |
| 20260506015103 | 15 | 56 | 1.6 | 3.2 | 0.00 | 0.00 | 0.00 | 60 | 1023.0 |
| 20260506014803 | 16 | 57 | 1.6 | 3.2 | 0.00 | 0.00 | 0.00 | 59 | 1023.1 |
| 20260506014503 | 16 | 57 | 1.6 | 3.2 | 0.00 | 0.00 | 0.00 | 59 | 1023.2 |
| 20260506014203 | 16 | 49 | 1.6 | 3.2 | 0.00 | 0.00 | 0.00 | 59 | 1023.1 |
| 20260506013904 | 16 | 42 | 1.6 | 3.2 | 0.00 | 0.00 | 0.00 | 59 | 1023.1 |
| 20260506013818 | 16 | 39 | 1.6 | 3.2 | 0.00 | 0.00 | 0.00 | 59 | 1023.1 |
| 20260506013303 | 16 | 23 | 1.6 | 3.2 | 0.00 | 0.00 | 0.00 | 59 | 1023.2 |
| 20260506013003 | 16 | 24 | 1.6 | 3.2 | 0.00 | 0.00 | 0.00 | 59 | 1023.2 |
| 20260506012703 | 16 | 24 | 0.0 | 3.2 | 0.00 | 0.00 | 0.00 | 60 | 1023.1 |
| 20260506012617 | 16 | 24 | 0.0 | 3.2 | 0.00 | 0.00 | 0.00 | 60 | 1023.1 |
| 20260506012104 | 16 | 24 | 0.0 | 1.6 | 0.00 | 0.00 | 0.00 | 60 | 1023.2 |
| 20260506011803 | 16 | 24 | 0.0 | 1.6 | 0.00 | 0.00 | 0.00 | 60 | 1023.1 |
| 20260506011503 | 16 | 24 | 0.0 | 1.6 | 0.00 | 0.00 | 0.00 | 59 | 1022.9 |
| 20260506011203 | 16 | 24 | 0.0 | 1.6 | 0.00 | 0.00 | 0.00 | 59 | 1023.0 |
| 20260506010903 | 16 | 24 | 0.0 | 1.6 | 0.00 | 0.00 | 0.00 | 59 | 1023.1 |
| 20260506010817 | 16 | 24 | 0.0 | 1.6 | 0.00 | 0.00 | 0.00 | 59 | 1023.1 |
| 20260506010517 | 16 | 0 | 0.0 | 0.0 | 0.00 | 0.00 | 0.00 | 59 | 1023.0 |
| 20260506010003 | 16 | 0 | 0.0 | 0.0 | 0.00 | 0.00 | 0.00 | 59 | 1023.0 |
| 20260506005703 | 16 | 0 | 0.0 | 0.0 | 0.00 | 0.00 | 0.00 | 59 | 1023.1 |
| 20260506005617 | 16 | 0 | 0.0 | 0.0 | 0.00 | 0.00 | 0.00 | 59 | 1023.1 |
| 20260506005103 | 16 | 0 | 0.0 | 0.0 | 0.00 | 0.00 | 0.00 | 59 | 1023.3 |
| 20260506004803 | 16 | 0 | 0.0 | 0.0 | 0.00 | 0.00 | 0.00 | 59 | 1023.3 |
| 20260506004504 | 16 | 0 | 0.0 | 0.0 | 0.00 | 0.00 | 0.00 | 58 | 1023.3 |
| 20260506004203 | 16 | 0 | 0.0 | 0.0 | 0.00 | 0.00 | 0.00 | 58 | 1023.2 |
| 20260506003903 | 16 | 0 | 0.0 | 0.0 | 0.00 | 0.00 | 0.00 | 57 | 1023.3 |
| 20260506003817 | 16 | 0 | 0.0 | 0.0 | 0.00 | 0.00 | 0.00 | 57 | 1023.4 |
| 20260506003303 | 16 | 24 | 0.0 | 1.6 | 0.00 | 0.00 | 0.00 | 57 | 1023.2 |
| 20260506003003 | 16 | 24 | 0.0 | 1.6 | 0.00 | 0.00 | 0.00 | 58 | 1023.2 |
| 20260506002917 | 16 | 24 | 0.0 | 1.6 | 0.00 | 0.00 | 0.00 | 58 | 1023.2 |
| 20260506002404 | 16 | 0 | 0.0 | 0.0 | 0.00 | 0.00 | 0.00 | 58 | 1023.2 |
| 20260506002103 | 16 | 0 | 0.0 | 0.0 | 0.00 | 0.00 | 0.00 | 58 | 1023.1 |
| 20260506001803 | 16 | 0 | 0.0 | 0.0 | 0.00 | 0.00 | 0.00 | 58 | 1023.4 |
| 20260506001503 | 16 | 0 | 0.0 | 0.0 | 0.00 | 0.00 | 0.00 | 58 | 1023.3 |
| 20260506001203 | 16 | 24 | 0.0 | 1.6 | 0.00 | 0.00 | 0.00 | 58 | 1023.2 |
| 20260506000903 | 16 | 24 | 0.0 | 1.6 | 0.00 | 0.00 | 0.00 | 58 | 1023.3 |
| 20260506000603 | 16 | 24 | 0.0 | 1.6 | 0.00 | 0.00 | 0.00 | 59 | 1023.2 |
| 20260506000303 | 16 | 24 | 0.0 | 1.6 | 0.00 | 0.00 | 0.00 | 58 | 1023.2 |
| 20260506000004 | 16 | 0 | 0.0 | 0.0 | 0.00 | 0.00 | 0.00 | 58 | 1023.3 |
| 20260505235703 | 16 | 24 | 0.0 | 1.6 | 0.00 | 0.00 | 0.00 | 58 | 1023.1 |
| 20260505235616 | 16 | 24 | 0.0 | 1.6 | 0.00 | 0.00 | 0.00 | 58 | 1023.1 |
| 20260505235103 | 16 | 24 | 0.0 | 1.6 | 0.00 | 0.00 | 0.00 | 58 | 1023.3 |
| 20260505234803 | 16 | 0 | 0.0 | 0.0 | 0.00 | 0.00 | 0.00 | 58 | 1023.3 |
| 20260505234503 | 16 | 0 | 0.0 | 0.0 | 0.00 | 0.00 | 0.00 | 58 | 1023.3 |
| 20260505234417 | 16 | 0 | 0.0 | 0.0 | 0.00 | 0.00 | 0.00 | 58 | 1023.3 |
| 20260505233903 | 16 | 0 | 0.0 | 0.0 | 0.00 | 0.00 | 0.00 | 57 | 1023.3 |
| 20260505233603 | 16 | 0 | 0.0 | 0.0 | 0.00 | 0.00 | 0.00 | 57 | 1023.3 |
| 20260505233303 | 16 | 0 | 0.0 | 0.0 | 0.00 | 0.00 | 0.00 | 56 | 1023.4 |
| 20260505233216 | 16 | 0 | 0.0 | 0.0 | 0.00 | 0.00 | 0.00 | 56 | 1023.4 |